• In United Kingdom
  • List of Countries
  • For 7 days
  • Water Temperature
  • Satellite Maps
  • Weather Map
  • Weather Widgets
  • user-avatar
    Login

    Hourly Weather Ilebo

    Today, 16 January, Tuesday

    Time Temperature Precipitation Wind Pressure Humidity
    00:00 +26°C° 0 mm 0 mps 722 mmHg 24%
    01:00 +25°C° 0 mm 0 mps 722 mmHg 25%
    02:00 +24°C° 0 mm 0 mps 722 mmHg 26%
    03:00 +24°C° 0 mm 0 mps 722 mmHg 27%
    04:00 +24°C° 0 mm 0 mps 722 mmHg 27%
    05:00 +26°C° 0 mm 1 mps 722 mmHg 27%
    06:00 +27°C° 0 mm 1 mps 723 mmHg 27%
    07:00 +28°C° 0 mm 1 mps 723 mmHg 26%
    08:00 +31°C° 0 mm 2 mps 723 mmHg 22%
    09:00 +35°C° 0 mm 2 mps 724 mmHg 19%
    10:00 +37°C° 0 mm 3 mps 724 mmHg 15%
    11:00 +39°C° 0 mm 2 mps 723 mmHg 14%
    12:00 +40°C° 0 mm 2 mps 722 mmHg 12%
    13:00 +42°C° 0 mm 2 mps 721 mmHg 11%
    14:00 +41°C° 0 mm 2 mps 721 mmHg 11%
    15:00 +41°C° 0 mm 2 mps 720 mmHg 11%
    16:00 +41°C° 0 mm 2 mps 719 mmHg 11%
    17:00 +38°C° 0 mm 2 mps 719 mmHg 13%
    18:00 +34°C° 0 mm 1 mps 719 mmHg 15%
    19:00 +32°C° 0 mm 1 mps 719 mmHg 18%
    20:00 +31°C° 0 mm 1 mps 720 mmHg 18%
    21:00 +30°C° 0 mm 1 mps 720 mmHg 18%
    22:00 +30°C° 0 mm 1 mps 721 mmHg 19%
    23:00 +29°C° 0 mm 1 mps 721 mmHg 19%

    Tomorrow, 17 January, Wednesday

    Time Temperature Precipitation Wind Pressure Humidity
    00:00 +28°C° 0 mm 1 mps 721 mmHg 20%
    01:00 +28°C° 0 mm 1 mps 721 mmHg 20%
    02:00 +27°C° 0 mm 1 mps 721 mmHg 20%
    03:00 +26°C° 0 mm 1 mps 721 mmHg 20%
    04:00 +25°C° 0 mm 1 mps 721 mmHg 20%
    05:00 +26°C° 0 mm 1 mps 721 mmHg 20%
    06:00 +26°C° 0 mm 1 mps 722 mmHg 19%
    07:00 +26°C° 0 mm 1 mps 722 mmHg 19%
    08:00 +30°C° 0 mm 2 mps 722 mmHg 15%
    09:00 +34°C° 0 mm 2 mps 723 mmHg 12%
    10:00 +38°C° 0 mm 3 mps 723 mmHg 9%
    11:00 +39°C° 0 mm 3 mps 722 mmHg 8%
    12:00 +41°C° 0 mm 2 mps 721 mmHg 8%
    13:00 +42°C° 0 mm 2 mps 720 mmHg 7%
    14:00 +42°C° 0 mm 2 mps 720 mmHg 7%
    15:00 +41°C° 0 mm 2 mps 719 mmHg 7%
    16:00 +41°C° 0 mm 1 mps 718 mmHg 8%
    17:00 +37°C° 0 mm 1 mps 719 mmHg 9%
    18:00 +34°C° 0 mm 1 mps 719 mmHg 11%
    19:00 +31°C° 0 mm 1 mps 719 mmHg 13%
    20:00 +31°C° 0 mm 1 mps 719 mmHg 13%
    21:00 +30°C° 0 mm 1 mps 720 mmHg 13%
    22:00 +29°C° 0 mm 1 mps 720 mmHg 14%
    23:00 +29°C° 0 mm 1 mps 720 mmHg 14%

    Day after tomorrow, 18 January, Thursday

    Time Temperature Precipitation Wind Pressure Humidity
    00:00 +28°C° 0 mm 1 mps 720 mmHg 14%
    01:00 +28°C° 0 mm 1 mps 720 mmHg 14%
    02:00 +27°C° 0 mm 1 mps 720 mmHg 15%
    03:00 +27°C° 0 mm 1 mps 720 mmHg 15%
    04:00 +26°C° 0 mm 1 mps 720 mmHg 15%
    05:00 +26°C° 0 mm 1 mps 721 mmHg 16%
    06:00 +26°C° 0 mm 1 mps 722 mmHg 16%
    07:00 +27°C° 0 mm 1 mps 722 mmHg 16%
    08:00 +30°C° 0 mm 1 mps 723 mmHg 14%
    09:00 +34°C° 0 mm 1 mps 723 mmHg 11%
    10:00 +38°C° 0 mm 2 mps 724 mmHg 9%
    11:00 +40°C° 0 mm 2 mps 723 mmHg 8%
    12:00 +41°C° 0 mm 2 mps 722 mmHg 7%
    13:00 +43°C° 0 mm 2 mps 721 mmHg 6%
    14:00 +42°C° 0 mm 1 mps 720 mmHg 6%
    15:00 +42°C° 0 mm 1 mps 720 mmHg 7%
    16:00 +41°C° 0 mm 1 mps 719 mmHg 7%
    17:00 +37°C° 0 mm 1 mps 719 mmHg 8%
    18:00 +34°C° 0 mm 1 mps 720 mmHg 10%
    19:00 +31°C° 0 mm 1 mps 720 mmHg 12%
    20:00 +30°C° 0 mm 1 mps 720 mmHg 12%
    21:00 +29°C° 0 mm 1 mps 721 mmHg 13%
    22:00 +28°C° 0 mm 1 mps 721 mmHg 13%
    23:00 +28°C° 0 mm 1 mps 721 mmHg 14%

    19 January, Friday

    Time Temperature Precipitation Wind Pressure Humidity
    00:00 +27°C° 0 mm 1 mps 721 mmHg 15%
    01:00 +26°C° 0 mm 1 mps 720 mmHg 15%
    02:00 +25°C° 0 mm 1 mps 720 mmHg 16%
    03:00 +25°C° 0 mm 1 mps 720 mmHg 16%
    04:00 +22°C° 0 mm 0 mps 720 mmHg 17%
    05:00 +23°C° 0 mm 0 mps 721 mmHg 17%
    06:00 +24°C° 0 mm 0 mps 722 mmHg 17%
    07:00 +24°C° 0 mm 0 mps 723 mmHg 17%
    08:00 +30°C° 0 mm 1 mps 723 mmHg 14%
    09:00 +34°C° 0 mm 1 mps 723 mmHg 11%
    10:00 +39°C° 0 mm 1 mps 724 mmHg 8%
    11:00 +40°C° 0 mm 1 mps 723 mmHg 7%
    12:00 +42°C° 0 mm 1 mps 722 mmHg 7%
    13:00 +43°C° 0 mm 1 mps 721 mmHg 6%
    14:00 +42°C° 0 mm 1 mps 720 mmHg 6%
    15:00 +42°C° 0 mm 1 mps 720 mmHg 6%
    16:00 +41°C° 0 mm 1 mps 719 mmHg 7%
    17:00 +37°C° 0 mm 1 mps 719 mmHg 8%
    18:00 +34°C° 0 mm 1 mps 720 mmHg 10%
    19:00 +31°C° 0 mm 1 mps 720 mmHg 11%
    20:00 +30°C° 0 mm 1 mps 720 mmHg 12%
    21:00 +29°C° 0 mm 1 mps 721 mmHg 12%
    22:00 +28°C° 0 mm 1 mps 721 mmHg 13%
    23:00 +27°C° 0 mm 1 mps 721 mmHg 13%

    20 January, Saturday

    Time Temperature Precipitation Wind Pressure Humidity
    00:00 +27°C° 0 mm 1 mps 721 mmHg 14%
    01:00 +26°C° 0 mm 1 mps 720 mmHg 14%
    02:00 +25°C° 0 mm 1 mps 720 mmHg 15%
    03:00 +24°C° 0 mm 1 mps 720 mmHg 16%
    04:00 +21°C° 0 mm 0 mps 720 mmHg 18%
    05:00 +22°C° 0 mm 0 mps 721 mmHg 17%
    06:00 +23°C° 0 mm 0 mps 722 mmHg 17%
    07:00 +24°C° 0 mm 0 mps 723 mmHg 16%
    08:00 +29°C° 0 mm 0 mps 723 mmHg 14%
    09:00 +35°C° 0 mm 1 mps 724 mmHg 11%
    10:00 +40°C° 0 mm 1 mps 724 mmHg 9%
    11:00 +42°C° 0 mm 1 mps 723 mmHg 8%
    12:00 +43°C° 0 mm 1 mps 722 mmHg 7%
    13:00 +45°C° 0 mm 1 mps 721 mmHg 6%
    14:00 +44°C° 0 mm 1 mps 720 mmHg 6%
    15:00 +42°C° 0 mm 1 mps 720 mmHg 7%
    16:00 +41°C° 0 mm 1 mps 719 mmHg 7%
    17:00 +37°C° 0 mm 1 mps 719 mmHg 8%
    18:00 +34°C° 0 mm 1 mps 720 mmHg 10%
    19:00 +31°C° 0 mm 1 mps 720 mmHg 12%
    20:00 +31°C° 0 mm 1 mps 720 mmHg 12%
    21:00 +30°C° 0 mm 1 mps 720 mmHg 13%
    22:00 +29°C° 0 mm 1 mps 721 mmHg 14%
    23:00 +28°C° 0 mm 1 mps 721 mmHg 15%

    21 January, Sunday

    Time Temperature Precipitation Wind Pressure Humidity
    00:00 +27°C° 0 mm 1 mps 720 mmHg 16%
    01:00 +27°C° 0 mm 1 mps 720 mmHg 17%
    02:00 +26°C° 0 mm 1 mps 720 mmHg 18%
    03:00 +24°C° 0 mm 0 mps 721 mmHg 19%
    04:00 +23°C° 0 mm 0 mps 721 mmHg 20%
    05:00 +24°C° 0 mm 0 mps 721 mmHg 20%
    06:00 +25°C° 0 mm 0 mps 722 mmHg 19%
    07:00 +26°C° 0 mm 0 mps 723 mmHg 19%
    08:00 +30°C° 0 mm 0 mps 723 mmHg 16%
    09:00 +34°C° 0 mm 0 mps 723 mmHg 12%
    10:00 +41°C° 0 mm 1 mps 724 mmHg 9%
    11:00 +42°C° 0 mm 1 mps 723 mmHg 8%
    12:00 +44°C° 0 mm 1 mps 722 mmHg 7%
    13:00 +45°C° 0 mm 1 mps 720 mmHg 6%
    14:00 +44°C° 0 mm 1 mps 720 mmHg 7%
    15:00 +43°C° 0 mm 1 mps 719 mmHg 7%
    16:00 +42°C° 0 mm 1 mps 719 mmHg 7%
    17:00 +39°C° 0 mm 1 mps 719 mmHg 9%
    18:00 +35°C° 0 mm 1 mps 719 mmHg 11%
    19:00 +32°C° 0 mm 1 mps 719 mmHg 12%
    20:00 +31°C° 0 mm 1 mps 720 mmHg 13%
    21:00 +30°C° 0 mm 1 mps 720 mmHg 15%
    22:00 +29°C° 0 mm 1 mps 720 mmHg 16%
    23:00 +29°C° 0 mm 1 mps 720 mmHg 18%
    Show more